• Join FlightAware (Why Join?)
  • Login
  • US Flag 
06:36AM EST


 

Airport Tracker/Info


-or-


 

Live Flight TrackerFlight Track Log ✈ FLG3861 ✈ 10-Sep-2013 ✈ KDTW - KBGM

Flight Track Log - Related Links

Times and Time Zones

All times are in EDT time to prevent confusion due to time zone crossing. See the FLG3861 flight status page for this flight to view local times or setup timezone preferences in your user account.

Time Position Orientation Groundspeed Altitude Reporting Facility
EDT Latitude Longitude Course Direction KTS MPH feet Rate Location/Type
09:44PM 42.2017 -83.3583 167° South 148 170 1,300  Level Cleveland Center
09:45PM 42.1808 -83.3517 167° South 178 205 2,000 1,740 Climbing Cleveland Center
09:46PM 42.1250 -83.3381 170° South 209 241 4,000 1,500 Climbing Cleveland Center
09:47PM 42.0914 -83.2611 120° Southeast 323 372 5,100 1,920 Climbing Cleveland Center
09:48PM 42.1314 -83.1536 63° Northeast 309 356 7,900 2,280 Climbing Cleveland Center
09:49PM 42.1711 -83.0431 64° Northeast 308 354 10,000 1,560 Climbing Cleveland Center
09:49PM 42.1869 -82.9931 67° East 355 409 10,000  Level Cleveland Center
09:50PM 42.2225 -82.8825 66° East 394 453 10,000 1,140 Level Cleveland Center
09:51PM 42.2689 -82.7439 66° East 404 465 12,300 1,740 Climbing Cleveland Center
09:52PM 42.3131 -82.6133 65° Northeast 399 459 13,500 1,080 Climbing Cleveland Center
09:53PM 42.3569 -82.4825 66° East 404 465 14,500 1,440 Climbing Cleveland Center
09:54PM 42.3614 -82.3311 88° East 399 459 16,400 1,500 Climbing Cleveland Center
09:55PM 42.3553 -82.1819 93° East 386 444 17,600 1,260 Climbing Cleveland Center
09:56PM 42.3492 -82.0189 93° East 397 457 19,000 1,140 Climbing Cleveland Center
09:57PM 42.3425 -81.8669 93° East 405 466 19,900 660 Climbing Cleveland Center
09:58PM 42.3358 -81.7067 93° East 417 480 20,400 480 Climbing Cleveland Center
09:59PM 42.3269 -81.5436 94° East 430 495 20,900 600 Climbing Cleveland Center
10:00PM 42.3219 -81.3806 92° East 430 495 21,600 660 Climbing Cleveland Center
10:01PM 42.3125 -81.2150 94° East 430 495 22,300 660 Climbing Cleveland Center
10:02PM 42.3050 -81.0547 94° East 436 502 23,000 600 Climbing Cleveland Center
10:03PM 42.2972 -80.9144 94° East 431 496 23,600 600 Climbing Cleveland Center
10:04PM 42.2956 -80.7489 91° East 431 496 24,300 600 Climbing Cleveland Center
10:05PM 42.2956 -80.5858 90° East 423 487 24,800 300 Climbing Cleveland Center
10:06PM 42.2956 -80.4258 90° East 423 487 25,000 300 Climbing Cleveland Center
10:07PM 42.2950 -80.2519 90° East 442 509 25,400 480 Climbing Cleveland Center
10:08PM 42.2944 -80.0864 90° East 442 509 26,000 300 Climbing Cleveland Center
10:09PM 42.2936 -79.9208 90° East 442 509 26,000  Level Cleveland Center
10:10PM 42.2925 -79.7467 90° East 442 509 26,000  Level Cleveland Center
10:11PM 42.2911 -79.5728 91° East 452 520 26,000  Level Cleveland Center
10:12PM 42.2894 -79.3931 91° East 463 533 26,000  Level Cleveland Center
10:13PM 42.2875 -79.2192 91° East 463 533 26,000  Level Cleveland Center
10:14PM 42.2853 -79.0422 91° East 463 533 26,000  Level Cleveland Center
10:15PM 42.2844 -78.8458 90° East 463 533 26,000  Level Cleveland Center
10:16PM 42.2861 -78.6719 89° East 463 533 26,000 -180 Level Cleveland Center
10:17PM 42.3311 -78.5047 70° East 456 525 25,700 -720 Descending Cleveland Center
10:18PM 42.3736 -78.3347 71° East 461 531 24,600 -1,080 Descending Cleveland Center
10:19PM 42.3742 -78.1492 90° East 471 542 23,600 -840 Descending Cleveland Center
10:20PM 42.3600 -77.9756 96° East 471 542 23,000 -660 Descending Cleveland Center
10:22PM 42.3383 -77.6914 96° East 482 555 22,000 -780 Descending New York Center
10:23PM 42.3264 -77.5331 96° East 477 549 21,000 -960 Descending New York Center
10:24PM 42.3133 -77.3578 96° East 472 543 20,100 -960 Descending New York Center
10:25PM 42.3022 -77.1828 95° East 472 543 19,100 -1,020 Descending New York Center
10:26PM 42.2903 -77.0161 95° East 467 537 18,100 -1,800 Descending New York Center
10:27PM 42.2778 -76.8553 96° East 451 519 15,600 -3,000 Descending New York Center
10:28PM 42.2628 -76.6942 97° East 422 486 12,200 -2,580 Descending New York Center
10:29PM 42.2508 -76.5558 97° East 390 449 10,400 -1,500 Descending New York Center
10:30PM 42.2600 -76.4528 83° East 365 420 9,200 -780 Descending New York Center
10:31PM 42.2842 -76.3400 74° East 323 372 8,900 -1,200 Descending New York Center
10:32PM 42.3039 -76.2294 76° East 307 353 6,900 -2,160 Descending New York Center
10:33PM 42.3233 -76.1217 76° East 302 348 4,600 -1,800 Descending New York Center
10:34PM 42.2911 -76.0464 120° Southeast 258 297 3,300 -1,140 Descending New York Center
10:35PM 42.2450 -76.0119 151° Southeast 200 230 2,400 -600 Descending New York Center
10:36PM 42.2100 -75.9531 129° Southeast 185 213 2,100 3,300 Descending New York Center
10:37PM 42.1747 -75.9000 132° Southeast 185 213 9,000 3,420 Climbing New York Center
10:38PM 42.1417 -75.8497 132° Southeast 185 213 9,000  Level New York Center
10:39PM 42.1064 -75.7967 132° Southeast 185 213 9,000  Level New York Center
10:40PM 42.0928 -75.7761 132° Southeast 185 213 9,000  Level New York Center
10:41PM 42.0928 -75.7761 200° South 185 213 9,000  Level New York Center
10:44PM 42.2000 -75.9667 308° West  Level FlightAware Approximate
10:51PM 42.2084 -75.9796 308° West  Level Estimated
10:52PM 42.2084 -75.9796 308° West  Level Estimated
10:53PM 42.2084 -75.9796 308° West  Level Estimated
10:54PM 42.2084 -75.9796 308° West  Level Estimated
10:55PM 42.2084 -75.9796 308° West  Level Estimated
10:56PM 42.2084 -75.9796 308° West  Level Estimated
10:57PM 42.2084 -75.9796 308° West  Level Estimated
10:58PM 42.2084 -75.9796 308° West  Level Estimated